Regional Weather Roundup
Issued by NWS

Home | Current Version | Previous Version | Graphics & Text | Print | Product List | Glossary On
Versions: 1 2 3 4 5 6 7 8 9 10 11 12 13 14 15 16 17 18 19 20 21 22 23 24 25 26 27 28 29 30 31 32 33 34 35 36 37 38 39 40 41 42 43 44 45 46 47 48 49 50
339
ASUS45 KPSR 261010
RWRAZ

ARIZONA HOURLY REGIONAL WEATHER ROUNDUP
NATIONAL WEATHER SERVICE PHOENIX AZ
300 AM MST SUN MAR 26 2017

NOTE: FAIR INDICATES FEW OR NO CLOUDS BELOW 12,000 FEET WITH NO
SIGNIFICANT WEATHER AND/OR OBSTRUCTIONS TO VISIBILITY.

AZZ001>003-036-261100-
NORTHWEST ARIZONA

CITY           SKY/WX    TMP DP  RH WIND       PRES   REMARKS
BULLHEAD CITY  PTCLDY    64  39  39 N8        29.91S
KINGMAN        CLEAR     45  26  47 CALM      29.98F
$$

AZZ004>008-015-016-018-261100-
NORTH CENTRAL ARIZONA

CITY           SKY/WX    TMP DP  RH WIND       PRES   REMARKS
GRAND CANYON   CLEAR     28  27  96 CALM      30.02F
WILLIAMS       PTCLDY    28  25  86 S3        30.02F
PRESCOTT       CLEAR     41  31  67 SW7       30.00F
FLAGSTAFF      CLEAR     28  24  85 SW8       30.00F WCI  20
PAYSON         CLEAR     45  28  53 CALM      30.00F
PAGE           CLEAR     48  35  60 NW6       29.93F
$$

AZZ009>014-017-261100-
NORTHEAST ARIZONA

CITY           SKY/WX    TMP DP  RH WIND       PRES   REMARKS
WINSLOW        CLEAR     35  28  75 W7        29.96F WCI  29
SAINT JOHNS    CLEAR     36  25  64 CALM      29.97F
WINDOW ROCK    PTCLDY    35  29  78 W3        29.97F
SHOW LOW       CLEAR     32  23  69 S6        30.01F WCI  26
$$

AZZ023-261100-
GREATER PHOENIX AREA

CITY           SKY/WX    TMP DP  RH WIND       PRES   REMARKS
PHOENIX        PTCLDY    61  32  33 SW5       29.86F
BUCKEYE        CLEAR     50  32  50 NW5       29.88F
LUKE AFB       CLEAR     55  37  49 NW5       29.86F
DEER VALLEY    CLEAR     54  35  48 CALM      29.87F
SCOTTSDALE     CLEAR     55  36  48 CALM      29.88F
MESA-GATEWAY   CLEAR     52  34  50 E7        29.89F
$$

AZZ027-028-261100-
SOUTHWEST MARICOPA COUNTY AND PINAL COUNTY

CITY           SKY/WX    TMP DP  RH WIND       PRES   REMARKS
CASA GRANDE    NOT AVBL
GILA BEND      FAIR      59  34  39 SE6       29.88F
$$

AZZ503-504-507>509-261100-
SOUTHEAST ARIZONA

CITY           SKY/WX    TMP DP  RH WIND       PRES   REMARKS
TUCSON         CLEAR     60  28  29 S6        29.95F
DAVIS-MONTHAN  CLEAR     52  26  36 SE8       29.94S
NOGALES        CLEAR     48  29  47 E5        29.97F
SIERRA VISTA   CLEAR     46  28  49 W8        30.00S
DOUGLAS        CLEAR     49  27  42 NW6       29.97F
SAFFORD        PTCLDY    51  26  37 N9        29.91F
$$

AZZ020-021-025-026-031-261100-
SOUTHWEST ARIZONA

CITY           SKY/WX    TMP DP  RH WIND       PRES   REMARKS
YUMA           CLEAR     60  44  55 W9        29.89F
$$

CAZ031-033-041-043-047-048-061-261100-
SOUTHERN CALIFORNIA

CITY           SKY/WX    TMP DP  RH WIND       PRES   REMARKS
DOWNTOWN L.A.  MOCLDY    57  53  86 CALM      30.01F
L.A. AIRPORT   MOCLDY    56  54  93 S3        30.02F
SAN DIEGO      PTCLDY    60  53  77 NW3       30.04S
BURBANK        CLEAR     52  47  83 CALM      30.01F
ONTARIO        MOCLDY    54  51  90 S5        30.01F
RIVERSIDE      CLOUDY    53  53 100 CALM      30.02F
PALM SPRINGS   CLEAR     62  45  53 CALM      29.93F
EL CENTRO NAS  CLEAR     57  41  55 W7        29.92S
IMPERIAL       CLEAR     57  43  59 NW6       29.90S
BLYTHE         CLEAR     62  40  44 W9        29.89S
NEEDLES        PTCLDY    65  37  35 W6        29.91S
$$

NVZ020-UTZ003-261100-
SOUTHERN NEVADA-UTAH

CITY           SKY/WX    TMP DP  RH WIND       PRES   REMARKS
LAS VEGAS      PTCLDY    58  37  45 NE3       29.96F
SALT LAKE CITY PTCLDY    36  36 100 SE5       30.02S WCI  32
$$

NMZ009-TXZ055-261100-
NEW MEXICO-WEST TEXAS

CITY           SKY/WX    TMP DP  RH WIND       PRES   REMARKS
ALBUQUERQUE    PTCLDY    41  29  62 E6        29.93F
EL PASO        MOCLDY    64  23  21 NW10      29.89S
$$


........................KEY........................
SKY/WX - SKY CONDITION/WEATHER
TMP    - TEMPERATURE IN FAHRENHEIT
DP     - DEW POINT IN FAHRENHEIT
RH     - RELATIVE HUMIDITY IN PERCENT
WIND   - DIRECTION AND SPEED IN MILES PER HOUR (MPH)
VRB    - VARIABLE WIND DIRECTION
PRES   - MEAN SEA LEVEL PRESSURE IN INCHES OF MERCURY
         F - FALLING PRESSURE   R - RISING PRESSURE
         S - STEADY PRESSURE
VSB    - VISIBILITY IN MILES
HX     - HEAT INDEX IN FAHRENHEIT
WCI    - WIND CHILL INDEX IN FAHRENHEIT
TC     - TEMPERATURE IN CELSIUS WHICH IS ALSO KNOWN AS
         TEMPERATURE IN CENTIGRADE
AFB    - AIR FORCE BASE
         LUKE AFB IS LUKE AIR FORCE BASE
         DAVIS-MONTHAN IS DAVIS-MONTHAN AIR FORCE BASE
NAS    - NAVAL AIR STATION
         EL CENTRO NAS IS EL CENTRO NAVAL AIR STATION
N/A    - NOT AVAILABLE





USA.gov is the U.S. government's official web portal to all federal, state and local government web resources and services.